User: anonymous   Login
Location: Newark
(7.0858°N, 171.3717°E)
Time: 15:32:29
(UTC+00:00)
Language:

X-37B - Orbit

View from above orbital plane
View from above orbital plane
View from above satellite
View from above satellite

Ground track
Ground track

The orbit data is extracted from the following two-line orbital elements,

1 45606U 20029A   21295.75774479 0.00000000  00000-0  00000-0 0    06
2 45606  45.0380 204.0034 0003004 148.9566 211.0430 15.75240799    02
Epoch (UTC): 22 October 2021 18:11:09
Eccentricity: 0.0003004
inclination: 45.0380°
perigee height: 342 km
apogee height: 346 km
right ascension of ascending node: 204.0034°
argument of perigee: 148.9566°
revolutions per day: 15.75240799
mean anomaly at epoch: 211.0430°
orbit number at epoch: 0

The dashed part of the orbit path shows where the satellite is in the earth's shadow,  

DLR